KINEIS-3E

Last updated on Mon Sep 21 2026 00:02:54 GMT+0000 (Coordinated Universal Time)

1 61222U 24172C 26263.19408480 .00001066 00000+0 17625-3 0 9998 2 61222 98.0401 352.0607 0001382 120.6010 239.5334 14.72386214107335
UTC large
Height (km)
Speed (km/s)
/
Latitude / Longitude
Inclination (degrees)
Orbital Period (minutes)
Azimuth
Elevation
Range (km)
Doppler Factor

Next 0 passes for location: London (51.5072 / 0.1276)

No passes found over London.
KINEIS-3E